Weather Roundup
Issued by NWS Chicago, IL

Home | Current Version | Previous Version | Graphics & Text | Print | Product List | Glossary On
Versions: 1 2 3 4 5 6 7 8 9 10 11 12 13 14 15 16 17 18 19 20 21 22 23 24 25 26 27 28 29 30 31 32 33 34 35 36 37 38 39 40 41 42 43 44 45 46 47 48 49 50
000
NZUS59 KLOT 231603
HRRLOT

CHICAGO AREA WEATHER ROUNDUP
NATIONAL WEATHER SERVICE CHICAGO/ROMEOVILLE IL
1100 AM CDT MON APR 23 2018

NOTE: "FAIR" INDICATES FEW OR NO CLOUDS BELOW 12,000 FEET WITH NO
SIGNIFICANT WEATHER AND/OR OBSTRUCTIONS TO VISIBILITY.

* THESE STATIONS ARE NOT UNDER NWS QUALITY CONTROL. THEY ALSO MAY NOT
  REPORT WEATHER SUCH AS PRECIPITATION OR FOG.

ILZ005-006-012>014-019>023-231700-
NORTHEAST ILLINOIS

CITY           SKY/WX    TMP DP  RH WIND       PRES   REMARKS
OHARE          PTSUNNY   55  29  36 NE14      30.17F
MIDWAY         PTSUNNY   55  30  38 NE13      30.17F
AURORA           N/A     61  30  31 NE14      30.15F
LANSING*         N/A     51  39  61 N10       30.16F
JOLIET*          N/A     60  32  34 N14       30.14F
WAUKEGAN         N/A     52  28  39 NE10      30.19F
DUPAGE AIRPORT   N/A     58  30  34 NE15      30.16F
WHEELING         N/A     54  29  38 NE10      30.21F
KANKAKEE*        N/A     61  33  35 E14       30.13F
MORRIS*          N/A     62  32  32 NE9G16    30.12F
LEWIS AIRPORT*   N/A     59  33  37 NE14      30.14F
NORTHERLY ISL    N/A     45  32  60 NW14        N/A
$$

WIZ051-052-058>065-066-070>072-231700-
SOUTHEAST WISCONSIN

CITY           SKY/WX    TMP DP  RH WIND       PRES   REMARKS
MILWAUKEE      PTSUNNY   53  32  44 NE8       30.23F
KENOSHA*         N/A     57  29  34 NE10      30.20F
RACINE*          N/A     50  31  48 NE12      30.23F
BURLINGTON       N/A     59  26  27 NE10      30.20F
WAUKESHA       SUNNY     54  25  32 E9        30.23F
WEST BEND        N/A     59  27  29 NE7       30.24F
$$

INZ001>003-010>013-019-020-231700-
NORTHWEST INDIANA

CITY           SKY/WX    TMP DP  RH WIND       PRES   REMARKS
GARY*          PTSUNNY   48  32  53 N10       30.17F
MICHIGAN CITY* NOT AVBL
RENSSELAER*    NOT AVBL
VALPARAISO       N/A     63  34  33 E10       30.15F
$$

LMZ740>746-231700-
SOUTHERN LAKE MICHIGAN

STATION/POSITION TIME  SKY/WX   TEMP WIND        PRES    VSBY
                                AIR  DIR/SP/G
                 (UTC)          (F)  (DEG/KT/KT) (MB)    (MI)
HARRISON CRIB    1530            41  340/ 15/ 16   N/A
BURNHAM HARBOR   1600            45   10/ 13/ 14   N/A
CALUMET HARBOR   1524            44  330/ 13/ 16 1021.8
BURNS HARBOR     1501            43   40/  6/  8 1022.4
MICHIGAN CITY    1540            42   30/  7/  8   N/A
$$

ABBREVIATIONS USED IN REMARKS
   TC - TEMPERATURE IN CELSIUS
  WCI - WIND CHILL INDEX
   HX - HEAT INDEX
  VSB - VISIBILITY
$$



USA.gov is the U.S. government's official web portal to all federal, state and local government web resources and services.